Location: Unspecified
(47.5840°N, 122.3000°W)
Time: 18:22:39
(UTC+00:00)

IRIDIUM 114 - Pass Details

Date: 19 March 2026
Orbit: 776 x 779 km, 86.4° (Epoch: 14 April)

Event Time Altitude Azimuth Distance (km) Brightness Sun altitude
Exits shadow 05:22:18 61° 274° (W) 882 4.7 -29.7°
Maximum altitude 05:22:20 61° 276° (W) 881 4.7 -29.7°
Drops below altitude 10° 05:27:32 10° 357° (N) 2,342 7.3 -30.3°
Sets 05:29:56 0° 1° (N) 3,274 8.0 -30.7°
